Year,Month,Day,Hour,Minute,Value (Times are PST for temperature in C)
2008,06,30,00,00,17.60
2008,06,30,00,01,17.60
2008,06,30,00,02,17.60
2008,06,30,00,03,17.60
2008,06,30,00,04,17.60
2008,06,30,00,05,17.60
2008,06,30,00,06,17.60
2008,06,30,00,07,17.60
2008,06,30,00,08,17.60
2008,06,30,00,09,17.70
2008,06,30,00,10,17.70
2008,06,30,00,11,17.70
2008,06,30,00,12,17.70
2008,06,30,00,13,17.80
2008,06,30,00,14,17.80
2008,06,30,00,15,17.80
2008,06,30,00,16,17.90
2008,06,30,00,17,17.90
2008,06,30,00,18,17.90
2008,06,30,00,19,17.90
2008,06,30,00,20,17.90
2008,06,30,00,21,17.90
2008,06,30,00,22,18.10
2008,06,30,00,23,18.10
2008,06,30,00,24,18.10
2008,06,30,00,25,18.10
2008,06,30,00,26,18.20
2008,06,30,00,27,18.20
2008,06,30,00,28,18.20
2008,06,30,00,29,18.20
2008,06,30,00,30,18.20
2008,06,30,00,31,18.20
2008,06,30,00,32,18.20
2008,06,30,00,33,18.20
2008,06,30,00,34,18.20
2008,06,30,00,35,18.20
2008,06,30,00,36,18.20
2008,06,30,00,37,18.20
2008,06,30,00,38,18.20
2008,06,30,00,39,18.20
2008,06,30,00,40,18.20
2008,06,30,00,41,18.30
2008,06,30,00,42,18.30
2008,06,30,00,43,18.40
2008,06,30,00,44,18.50
2008,06,30,00,45,18.50
2008,06,30,00,46,18.50
2008,06,30,00,47,18.50
2008,06,30,00,48,18.50
2008,06,30,00,49,18.50
2008,06,30,00,50,18.50
2008,06,30,00,51,18.50
2008,06,30,00,52,18.60
2008,06,30,00,53,18.60
2008,06,30,00,54,18.60
2008,06,30,00,55,18.60
2008,06,30,00,56,18.60
2008,06,30,00,57,18.50
2008,06,30,00,58,18.50
2008,06,30,00,59,18.50
2008,06,30,01,00,18.50
2008,06,30,01,01,18.50
2008,06,30,01,02,18.50
2008,06,30,01,03,18.50
2008,06,30,01,04,18.50
2008,06,30,01,05,18.50
2008,06,30,01,06,18.50
2008,06,30,01,07,18.50
2008,06,30,01,08,18.50
2008,06,30,01,09,18.50
2008,06,30,01,10,18.50
2008,06,30,01,11,18.40
2008,06,30,01,12,18.40
2008,06,30,01,13,18.30
2008,06,30,01,14,18.10
2008,06,30,01,15,18.10
2008,06,30,01,16,17.90
2008,06,30,01,17,17.80
2008,06,30,01,18,17.70
2008,06,30,01,19,17.60
2008,06,30,01,20,17.50
2008,06,30,01,21,17.40
2008,06,30,01,22,17.30
2008,06,30,01,23,17.30
2008,06,30,01,24,17.30
2008,06,30,01,25,17.20
2008,06,30,01,26,17.20
2008,06,30,01,27,17.20
2008,06,30,01,28,17.10
2008,06,30,01,29,17.10
2008,06,30,01,30,17.10
2008,06,30,01,31,17.10
2008,06,30,01,32,17.10
2008,06,30,01,33,17.10
2008,06,30,01,34,17.10
2008,06,30,01,35,17.00
2008,06,30,01,36,17.00
2008,06,30,01,37,17.00
2008,06,30,01,38,16.90
2008,06,30,01,39,16.90
2008,06,30,01,40,16.90
2008,06,30,01,41,16.90
2008,06,30,01,42,16.90
2008,06,30,01,43,16.90
2008,06,30,01,44,16.90
2008,06,30,01,45,16.90
2008,06,30,01,46,16.90
2008,06,30,01,47,16.90
2008,06,30,01,48,16.90
2008,06,30,01,49,16.90
2008,06,30,01,50,16.90
2008,06,30,01,51,17.00
2008,06,30,01,52,17.00
2008,06,30,01,53,17.00
2008,06,30,01,54,17.00
2008,06,30,01,55,17.00
2008,06,30,01,56,17.00
2008,06,30,01,57,17.10
2008,06,30,01,58,17.10
2008,06,30,01,59,17.10
2008,06,30,02,00,17.00
2008,06,30,02,01,17.00
2008,06,30,02,02,17.00
2008,06,30,02,03,17.00
2008,06,30,02,04,17.00
2008,06,30,02,05,16.90
2008,06,30,02,06,16.90
2008,06,30,02,07,16.90
2008,06,30,02,08,16.90
2008,06,30,02,09,16.90
2008,06,30,02,10,16.90
2008,06,30,02,11,16.90
2008,06,30,02,12,16.90
2008,06,30,02,13,16.90
2008,06,30,02,14,16.90
2008,06,30,02,15,16.90
2008,06,30,02,16,16.80
2008,06,30,02,17,16.80
2008,06,30,02,18,16.80
2008,06,30,02,19,16.80
2008,06,30,02,20,16.90
2008,06,30,02,21,16.90
2008,06,30,02,22,16.90
2008,06,30,02,23,16.90
2008,06,30,02,24,16.90
2008,06,30,02,25,16.80
2008,06,30,02,26,16.80
2008,06,30,02,27,16.80
2008,06,30,02,28,16.80
2008,06,30,02,29,16.80
2008,06,30,02,30,16.80
2008,06,30,02,31,16.80
2008,06,30,02,32,16.80
2008,06,30,02,33,16.80
2008,06,30,02,34,16.80
2008,06,30,02,35,16.80
2008,06,30,02,36,16.80
2008,06,30,02,37,16.80
2008,06,30,02,38,16.80
2008,06,30,02,39,16.80
2008,06,30,02,40,16.80
2008,06,30,02,41,16.80
2008,06,30,02,42,16.80
2008,06,30,02,43,16.90
2008,06,30,02,44,16.90
2008,06,30,02,45,16.90
2008,06,30,02,46,16.90
2008,06,30,02,47,16.90
2008,06,30,02,48,16.90
2008,06,30,02,49,16.90
2008,06,30,02,50,16.90
2008,06,30,02,51,16.90
2008,06,30,02,52,16.90
2008,06,30,02,53,16.90
2008,06,30,02,54,16.90
2008,06,30,02,55,17.00
2008,06,30,02,56,17.00
2008,06,30,02,57,17.00
2008,06,30,02,58,17.00
2008,06,30,02,59,17.00
2008,06,30,03,00,17.00
2008,06,30,03,01,17.00
2008,06,30,03,02,17.00
2008,06,30,03,03,17.00
2008,06,30,03,04,17.10
2008,06,30,03,05,17.10
2008,06,30,03,06,17.20
2008,06,30,03,07,17.20
2008,06,30,03,08,17.20
2008,06,30,03,09,17.20
2008,06,30,03,10,17.20
2008,06,30,03,11,17.30
2008,06,30,03,12,17.30
2008,06,30,03,13,17.30
2008,06,30,03,14,17.30
2008,06,30,03,15,17.30
2008,06,30,03,16,17.30
2008,06,30,03,17,17.30
2008,06,30,03,18,17.20
2008,06,30,03,19,17.10
2008,06,30,03,20,17.10
2008,06,30,03,21,17.00
2008,06,30,03,22,17.00
2008,06,30,03,23,16.90
2008,06,30,03,24,16.90
2008,06,30,03,25,16.90
2008,06,30,03,26,16.90
2008,06,30,03,27,16.90
2008,06,30,03,28,16.90
2008,06,30,03,29,17.00
2008,06,30,03,30,17.00
2008,06,30,03,31,17.00
2008,06,30,03,32,17.00
2008,06,30,03,33,17.00
2008,06,30,03,34,17.00
2008,06,30,03,35,17.00
2008,06,30,03,36,17.00
2008,06,30,03,37,17.00
2008,06,30,03,38,17.00
2008,06,30,03,39,17.10
2008,06,30,03,40,17.10
2008,06,30,03,41,17.10
2008,06,30,03,42,17.10
2008,06,30,03,43,17.00
2008,06,30,03,44,17.00
2008,06,30,03,45,17.00
2008,06,30,03,46,16.90
2008,06,30,03,47,16.90
2008,06,30,03,48,16.80
2008,06,30,03,49,16.70
2008,06,30,03,50,16.70
2008,06,30,03,51,16.60
2008,06,30,03,52,16.50
2008,06,30,03,53,16.40
2008,06,30,03,54,16.40
2008,06,30,03,55,16.20
2008,06,30,03,56,16.20
2008,06,30,03,57,16.10
2008,06,30,03,58,16.10
2008,06,30,03,59,16.00
2008,06,30,04,00,15.90
2008,06,30,04,01,15.80
2008,06,30,04,02,15.80
2008,06,30,04,03,15.80
2008,06,30,04,04,15.80
2008,06,30,04,05,15.80
2008,06,30,04,06,15.80
2008,06,30,04,07,15.80
2008,06,30,04,08,15.90
2008,06,30,04,09,15.90
2008,06,30,04,10,15.90
2008,06,30,04,11,15.90
2008,06,30,04,12,15.80
2008,06,30,04,13,15.80
2008,06,30,04,14,15.80
2008,06,30,04,15,15.70
2008,06,30,04,16,15.70
2008,06,30,04,17,15.60
2008,06,30,04,18,15.60
2008,06,30,04,19,15.60
2008,06,30,04,20,15.60
2008,06,30,04,21,15.60
2008,06,30,04,22,15.60
2008,06,30,04,23,15.70
2008,06,30,04,24,15.70
2008,06,30,04,25,15.80
2008,06,30,04,26,15.90
2008,06,30,04,27,16.00
2008,06,30,04,28,16.10
2008,06,30,04,29,16.20
2008,06,30,04,30,16.30
2008,06,30,04,31,16.40
2008,06,30,04,32,16.40
2008,06,30,04,33,16.50
2008,06,30,04,34,16.60
2008,06,30,04,35,16.60
2008,06,30,04,36,16.70
2008,06,30,04,37,16.70
2008,06,30,04,38,16.70
2008,06,30,04,39,16.70
2008,06,30,04,40,16.70
2008,06,30,04,41,16.70
2008,06,30,04,42,16.70
2008,06,30,04,43,16.70
2008,06,30,04,44,16.70
2008,06,30,04,45,16.70
2008,06,30,04,46,16.70
2008,06,30,04,47,16.70
2008,06,30,04,48,16.70
2008,06,30,04,49,16.70
2008,06,30,04,50,16.70
2008,06,30,04,51,16.60
2008,06,30,04,52,16.60
2008,06,30,04,53,16.50
2008,06,30,04,54,16.40
2008,06,30,04,55,16.40
2008,06,30,04,56,16.40
2008,06,30,04,57,16.40
2008,06,30,04,58,16.30
2008,06,30,04,59,16.30
2008,06,30,05,00,16.30
2008,06,30,05,01,16.30
2008,06,30,05,02,16.30
2008,06,30,05,03,16.30
2008,06,30,05,04,16.20
2008,06,30,05,05,16.20
2008,06,30,05,06,16.20
2008,06,30,05,07,16.20
2008,06,30,05,08,16.20
2008,06,30,05,09,16.20
2008,06,30,05,10,16.20
2008,06,30,05,11,16.20
2008,06,30,05,12,16.20
2008,06,30,05,13,16.30
2008,06,30,05,14,16.30
2008,06,30,05,15,16.30
2008,06,30,05,16,16.30
2008,06,30,05,17,16.30
2008,06,30,05,18,16.40
2008,06,30,05,19,16.40
2008,06,30,05,20,16.40
2008,06,30,05,21,16.40
2008,06,30,05,22,16.40
2008,06,30,05,23,16.40
2008,06,30,05,24,16.40
2008,06,30,05,25,16.40
2008,06,30,05,26,16.40
2008,06,30,05,27,16.40
2008,06,30,05,28,16.40
2008,06,30,05,29,16.40
2008,06,30,05,30,16.40
2008,06,30,05,31,16.40
2008,06,30,05,32,16.40
2008,06,30,05,33,16.40
2008,06,30,05,34,16.40
2008,06,30,05,35,16.40
2008,06,30,05,36,16.40
2008,06,30,05,37,16.40
2008,06,30,05,38,16.40
2008,06,30,05,39,16.50
2008,06,30,05,40,16.60
2008,06,30,05,41,16.50
2008,06,30,05,42,16.40
2008,06,30,05,43,16.40
2008,06,30,05,44,16.40
2008,06,30,05,45,16.40
2008,06,30,05,46,16.30
2008,06,30,05,47,16.30
2008,06,30,05,48,16.30
2008,06,30,05,49,16.30
2008,06,30,05,50,16.30
2008,06,30,05,51,16.30
2008,06,30,05,52,16.30
2008,06,30,05,53,16.30
2008,06,30,05,54,16.30
2008,06,30,05,55,16.30
2008,06,30,05,56,16.30
2008,06,30,05,57,16.30
2008,06,30,05,58,16.30
2008,06,30,05,59,16.30
2008,06,30,06,00,16.30
2008,06,30,06,01,16.30
2008,06,30,06,02,16.30
2008,06,30,06,03,16.20
2008,06,30,06,04,16.20
2008,06,30,06,05,16.20
2008,06,30,06,06,16.20
2008,06,30,06,07,16.20
2008,06,30,06,08,16.20
2008,06,30,06,09,16.20
2008,06,30,06,10,16.20
2008,06,30,06,11,16.10
2008,06,30,06,12,16.10
2008,06,30,06,13,16.10
2008,06,30,06,14,16.10
2008,06,30,06,15,16.10
2008,06,30,06,16,16.10
2008,06,30,06,17,16.10
2008,06,30,06,18,16.00
2008,06,30,06,19,15.90
2008,06,30,06,20,15.90
2008,06,30,06,21,15.80
2008,06,30,06,22,15.80
2008,06,30,06,23,15.80
2008,06,30,06,24,15.80
2008,06,30,06,25,15.80
2008,06,30,06,26,15.80
2008,06,30,06,27,15.80
2008,06,30,06,28,15.80
2008,06,30,06,29,15.80
2008,06,30,06,30,15.80
2008,06,30,06,31,15.80
2008,06,30,06,32,15.70
2008,06,30,06,33,15.70
2008,06,30,06,34,15.70
2008,06,30,06,35,15.70
2008,06,30,06,36,15.70
2008,06,30,06,37,15.70
2008,06,30,06,38,15.70
2008,06,30,06,39,15.70
2008,06,30,06,40,15.70
2008,06,30,06,41,15.80
2008,06,30,06,42,15.80
2008,06,30,06,43,15.80
2008,06,30,06,44,15.80
2008,06,30,06,45,15.80
2008,06,30,06,46,15.80
2008,06,30,06,47,15.80
2008,06,30,06,48,15.80
2008,06,30,06,49,15.80
2008,06,30,06,50,15.80
2008,06,30,06,51,15.80
2008,06,30,06,52,15.80
2008,06,30,06,53,15.90
2008,06,30,06,54,15.90
2008,06,30,06,55,15.90
2008,06,30,06,56,15.90
2008,06,30,06,57,15.90
2008,06,30,06,58,15.90
2008,06,30,06,59,15.90
2008,06,30,07,00,16.10
2008,06,30,07,01,16.10
2008,06,30,07,02,16.10
2008,06,30,07,03,16.10
2008,06,30,07,04,16.10
2008,06,30,07,05,16.10
2008,06,30,07,06,16.10
2008,06,30,07,07,16.10
2008,06,30,07,08,16.10
2008,06,30,07,09,16.20
2008,06,30,07,10,16.20
2008,06,30,07,11,16.20
2008,06,30,07,12,16.20
2008,06,30,07,13,16.20
2008,06,30,07,14,16.20
2008,06,30,07,15,16.30
2008,06,30,07,16,16.30
2008,06,30,07,17,16.30
2008,06,30,07,18,16.30
2008,06,30,07,19,16.30
2008,06,30,07,20,16.30
2008,06,30,07,21,16.40
2008,06,30,07,22,16.40
2008,06,30,07,23,16.40
2008,06,30,07,24,16.40
2008,06,30,07,25,16.40
2008,06,30,07,26,16.60
2008,06,30,07,27,16.60
2008,06,30,07,28,16.60
2008,06,30,07,29,16.60
2008,06,30,07,30,16.60
2008,06,30,07,31,16.70
2008,06,30,07,32,16.70
2008,06,30,07,33,16.70
2008,06,30,07,34,16.70
2008,06,30,07,35,16.70
2008,06,30,07,36,16.70
2008,06,30,07,37,16.80
2008,06,30,07,38,16.80
2008,06,30,07,39,16.80
2008,06,30,07,40,16.80
2008,06,30,07,41,16.80
2008,06,30,07,42,16.80
2008,06,30,07,43,16.80
2008,06,30,07,44,16.80
2008,06,30,07,45,16.80
2008,06,30,07,46,16.90
2008,06,30,07,47,16.90
2008,06,30,07,48,16.90
2008,06,30,07,49,16.90
2008,06,30,07,50,16.90
2008,06,30,07,51,17.00
2008,06,30,07,52,17.00
2008,06,30,07,53,17.00
2008,06,30,07,54,17.00
2008,06,30,07,55,17.00
2008,06,30,07,56,17.00
2008,06,30,07,57,17.00
2008,06,30,07,58,17.00
2008,06,30,07,59,17.00
2008,06,30,08,00,17.00
2008,06,30,08,01,17.10
2008,06,30,08,02,17.10
2008,06,30,08,03,17.10
2008,06,30,08,04,17.10
2008,06,30,08,05,17.20
2008,06,30,08,06,17.20
2008,06,30,08,07,17.20
2008,06,30,08,08,17.20
2008,06,30,08,09,17.20
2008,06,30,08,10,17.20
2008,06,30,08,11,17.20
2008,06,30,08,12,17.20
2008,06,30,08,13,17.20
2008,06,30,08,14,17.20
2008,06,30,08,15,17.30
2008,06,30,08,16,17.50
2008,06,30,08,17,17.50
2008,06,30,08,18,17.60
2008,06,30,08,19,17.60
2008,06,30,08,20,17.60
2008,06,30,08,21,17.70
2008,06,30,08,22,17.70
2008,06,30,08,23,17.80
2008,06,30,08,24,17.80
2008,06,30,08,25,17.90
2008,06,30,08,26,17.90
2008,06,30,08,27,17.90
2008,06,30,08,28,17.90
2008,06,30,08,29,17.90
2008,06,30,08,30,18.00
2008,06,30,08,31,18.10
2008,06,30,08,32,18.10
2008,06,30,08,33,18.10
2008,06,30,08,34,18.20
2008,06,30,08,35,18.20
2008,06,30,08,36,18.20
2008,06,30,08,37,18.20
2008,06,30,08,38,18.20
2008,06,30,08,39,18.20
2008,06,30,08,40,18.20
2008,06,30,08,41,18.20
2008,06,30,08,42,18.20
2008,06,30,08,43,18.20
2008,06,30,08,44,18.30
2008,06,30,08,45,18.30
2008,06,30,08,46,18.30
2008,06,30,08,47,18.30
2008,06,30,08,48,18.30
2008,06,30,08,49,18.30
2008,06,30,08,50,18.30
2008,06,30,08,51,18.30
2008,06,30,08,52,18.30
2008,06,30,08,53,18.30
2008,06,30,08,54,18.30
2008,06,30,08,55,18.30
2008,06,30,08,56,18.30
2008,06,30,08,57,18.30
2008,06,30,08,58,18.20
2008,06,30,08,59,18.20
2008,06,30,09,00,18.20
2008,06,30,09,01,18.20
2008,06,30,09,02,18.20
2008,06,30,09,03,18.10
2008,06,30,09,04,18.10
2008,06,30,09,05,18.10
2008,06,30,09,06,18.10
2008,06,30,09,07,18.10
2008,06,30,09,08,18.10
2008,06,30,09,09,18.10
2008,06,30,09,10,18.20
2008,06,30,09,11,18.20
2008,06,30,09,12,18.20
2008,06,30,09,13,18.30
2008,06,30,09,14,18.40
2008,06,30,09,15,18.50
2008,06,30,09,16,18.60
2008,06,30,09,17,18.60
2008,06,30,09,18,18.70
2008,06,30,09,19,18.70
2008,06,30,09,20,18.80
2008,06,30,09,21,18.90
2008,06,30,09,22,18.90
2008,06,30,09,23,18.90
2008,06,30,09,24,18.90
2008,06,30,09,25,19.10
2008,06,30,09,26,19.10
2008,06,30,09,27,19.20
2008,06,30,09,28,19.30
2008,06,30,09,29,19.30
2008,06,30,09,30,19.30
2008,06,30,09,31,19.40
2008,06,30,09,32,19.60
2008,06,30,09,33,19.70
2008,06,30,09,34,19.90
2008,06,30,09,35,20.00
2008,06,30,09,36,20.10
2008,06,30,09,37,20.20
2008,06,30,09,38,20.40
2008,06,30,09,39,20.50
2008,06,30,09,40,20.60
2008,06,30,09,41,20.70
2008,06,30,09,42,20.70
2008,06,30,09,43,20.80
2008,06,30,09,44,20.80
2008,06,30,09,45,20.90
2008,06,30,09,46,21.10
2008,06,30,09,47,21.20
2008,06,30,09,48,21.30
2008,06,30,09,49,21.50
2008,06,30,09,50,21.60
2008,06,30,09,51,21.60
2008,06,30,09,52,21.70
2008,06,30,09,53,21.70
2008,06,30,09,54,21.70
2008,06,30,09,55,21.80
2008,06,30,09,56,21.90
2008,06,30,09,57,22.00
2008,06,30,09,58,22.10
2008,06,30,09,59,22.10
2008,06,30,10,00,22.20
2008,06,30,10,01,22.20
2008,06,30,10,02,22.30
2008,06,30,10,03,22.40
2008,06,30,10,04,22.50
2008,06,30,10,05,22.60
2008,06,30,10,06,22.70
2008,06,30,10,07,22.80
2008,06,30,10,08,22.90
2008,06,30,10,09,23.00
2008,06,30,10,10,23.10
2008,06,30,10,11,23.10
2008,06,30,10,12,23.10
2008,06,30,10,13,23.20
2008,06,30,10,14,23.20
2008,06,30,10,15,23.20
2008,06,30,10,16,23.20
2008,06,30,10,17,23.20
2008,06,30,10,18,23.30
2008,06,30,10,19,23.30
2008,06,30,10,20,23.30
2008,06,30,10,21,23.30
2008,06,30,10,22,23.40
2008,06,30,10,23,23.40
2008,06,30,10,24,23.40
2008,06,30,10,25,23.30
2008,06,30,10,26,23.30
2008,06,30,10,27,23.30
2008,06,30,10,28,23.30
2008,06,30,10,29,23.30
2008,06,30,10,30,23.30
2008,06,30,10,31,23.20
2008,06,30,10,32,23.20
2008,06,30,10,33,23.20
2008,06,30,10,34,23.20
2008,06,30,10,35,23.30
2008,06,30,10,36,23.40
2008,06,30,10,37,23.50
2008,06,30,10,38,23.60
2008,06,30,10,39,23.70
2008,06,30,10,40,23.80
2008,06,30,10,41,24.00
2008,06,30,10,42,24.10
2008,06,30,10,43,24.10
2008,06,30,10,44,24.20
2008,06,30,10,45,24.20
2008,06,30,10,46,24.30
2008,06,30,10,47,24.40
2008,06,30,10,48,24.40
2008,06,30,10,49,24.20
2008,06,30,10,50,23.70
2008,06,30,10,51,23.30
2008,06,30,10,52,22.80
2008,06,30,10,53,22.40
2008,06,30,10,54,22.10
2008,06,30,10,55,21.80
2008,06,30,10,56,21.50
2008,06,30,10,57,21.20
2008,06,30,10,58,21.10
2008,06,30,10,59,21.00
2008,06,30,11,00,21.00
2008,06,30,11,01,21.00
2008,06,30,11,02,21.00
2008,06,30,11,03,21.00
2008,06,30,11,04,21.00
2008,06,30,11,05,21.00
2008,06,30,11,06,21.00
2008,06,30,11,07,21.00
2008,06,30,11,08,21.00
2008,06,30,11,09,21.00
2008,06,30,11,10,21.00
2008,06,30,11,11,21.30
2008,06,30,11,12,21.30
2008,06,30,11,13,21.40
2008,06,30,11,14,21.40
2008,06,30,11,15,21.60
2008,06,30,11,16,21.60
2008,06,30,11,17,21.60
2008,06,30,11,18,21.60
2008,06,30,11,19,21.60
2008,06,30,11,20,21.60
2008,06,30,11,21,21.70
2008,06,30,11,22,21.70
2008,06,30,11,23,21.70
2008,06,30,11,24,21.70
2008,06,30,11,25,21.80
2008,06,30,11,26,21.90
2008,06,30,11,27,21.90
2008,06,30,11,28,22.00
2008,06,30,11,29,22.10
2008,06,30,11,30,22.10
2008,06,30,11,31,22.10
2008,06,30,11,32,22.20
2008,06,30,11,33,22.20
2008,06,30,11,34,22.30
2008,06,30,11,35,22.40
2008,06,30,11,36,22.50
2008,06,30,11,37,22.60
2008,06,30,11,38,22.80
2008,06,30,11,39,22.90
2008,06,30,11,40,22.90
2008,06,30,11,41,23.00
2008,06,30,11,42,23.10
2008,06,30,11,43,23.10
2008,06,30,11,44,23.10
2008,06,30,11,45,23.10
2008,06,30,11,46,23.10
2008,06,30,11,47,23.10
2008,06,30,11,48,23.20
2008,06,30,11,49,23.30
2008,06,30,11,50,23.30
2008,06,30,11,51,23.30
2008,06,30,11,52,23.30
2008,06,30,11,53,23.40
2008,06,30,11,54,23.60
2008,06,30,11,55,23.70
2008,06,30,11,56,23.80
2008,06,30,11,57,24.00
2008,06,30,11,58,24.20
2008,06,30,11,59,24.30
2008,06,30,12,00,24.50
2008,06,30,12,01,24.60
2008,06,30,12,02,24.70
2008,06,30,12,03,24.80
2008,06,30,12,04,24.80
2008,06,30,12,05,24.80
2008,06,30,12,06,24.70
2008,06,30,12,07,24.70
2008,06,30,12,08,24.80
2008,06,30,12,09,24.90
2008,06,30,12,10,25.00
2008,06,30,12,11,25.10
2008,06,30,12,12,25.10
2008,06,30,12,13,25.00
2008,06,30,12,14,24.90
2008,06,30,12,15,24.90
2008,06,30,12,16,24.80
2008,06,30,12,17,24.80
2008,06,30,12,18,24.80
2008,06,30,12,19,24.80
2008,06,30,12,20,24.80
2008,06,30,12,21,24.90
2008,06,30,12,22,25.10
2008,06,30,12,23,25.10
2008,06,30,12,24,25.10
2008,06,30,12,25,25.20
2008,06,30,12,26,25.20
2008,06,30,12,27,25.30
2008,06,30,12,28,25.30
2008,06,30,12,29,25.20
2008,06,30,12,30,25.20
2008,06,30,12,31,25.10
2008,06,30,12,32,25.10
2008,06,30,12,33,25.10
2008,06,30,12,34,25.10
2008,06,30,12,35,25.10
2008,06,30,12,36,25.10
2008,06,30,12,37,25.20
2008,06,30,12,38,25.20
2008,06,30,12,39,25.20
2008,06,30,12,40,25.50
2008,06,30,12,41,25.70
2008,06,30,12,42,25.80
2008,06,30,12,43,25.80
2008,06,30,12,44,25.90
2008,06,30,12,45,26.00
2008,06,30,12,46,26.10
2008,06,30,12,47,26.20
2008,06,30,12,48,26.20
2008,06,30,12,49,26.30
2008,06,30,12,50,26.40
2008,06,30,12,51,26.50
2008,06,30,12,52,26.50
2008,06,30,12,53,26.40
2008,06,30,12,54,26.40
2008,06,30,12,55,26.40
2008,06,30,12,56,26.50
2008,06,30,12,57,26.60
2008,06,30,12,58,26.60
2008,06,30,12,59,26.60
2008,06,30,13,00,26.60
2008,06,30,13,01,26.60
2008,06,30,13,02,26.50
2008,06,30,13,03,26.30
2008,06,30,13,04,26.20
2008,06,30,13,05,26.10
2008,06,30,13,06,25.90
2008,06,30,13,07,25.90
2008,06,30,13,08,25.90
2008,06,30,13,09,26.00
2008,06,30,13,10,26.00
2008,06,30,13,11,25.90
2008,06,30,13,12,25.80
2008,06,30,13,13,25.70
2008,06,30,13,14,25.70
2008,06,30,13,15,25.60
2008,06,30,13,16,25.60
2008,06,30,13,17,25.60
2008,06,30,13,18,25.60
2008,06,30,13,19,25.60
2008,06,30,13,20,25.60
2008,06,30,13,21,25.00
2008,06,30,13,22,24.90
2008,06,30,13,23,24.90
2008,06,30,13,24,24.90
2008,06,30,13,25,24.90
2008,06,30,13,26,24.80
2008,06,30,13,27,24.70
2008,06,30,13,28,24.60
2008,06,30,13,29,24.60
2008,06,30,13,30,24.50
2008,06,30,13,31,24.50
2008,06,30,13,32,24.50
2008,06,30,13,33,24.50
2008,06,30,13,34,24.50
2008,06,30,13,35,24.50
2008,06,30,13,36,24.50
2008,06,30,13,37,24.50
2008,06,30,13,38,24.80
2008,06,30,13,39,24.90
2008,06,30,13,40,25.00
2008,06,30,13,41,25.10
2008,06,30,13,42,25.10
2008,06,30,13,43,25.10
2008,06,30,13,44,25.10
2008,06,30,13,45,25.10
2008,06,30,13,46,25.00
2008,06,30,13,47,25.00
2008,06,30,13,48,25.00
2008,06,30,13,49,25.10
2008,06,30,13,50,25.10
2008,06,30,13,51,25.20
2008,06,30,13,52,25.40
2008,06,30,13,53,25.40
2008,06,30,13,54,25.50
2008,06,30,13,55,25.50
2008,06,30,13,56,25.50
2008,06,30,13,57,25.50
2008,06,30,13,58,25.50
2008,06,30,13,59,25.50
2008,06,30,14,00,25.60
2008,06,30,14,01,25.60
2008,06,30,14,02,25.70
2008,06,30,14,03,25.70
2008,06,30,14,04,25.70
2008,06,30,14,05,25.70
2008,06,30,14,06,25.70
2008,06,30,14,07,26.00
2008,06,30,14,08,26.30
2008,06,30,14,09,26.30
2008,06,30,14,10,26.40
2008,06,30,14,11,26.50
2008,06,30,14,12,26.60
2008,06,30,14,13,26.60
2008,06,30,14,14,26.60
2008,06,30,14,15,26.70
2008,06,30,14,16,26.70
2008,06,30,14,17,26.80
2008,06,30,14,18,26.90
2008,06,30,14,19,27.10
2008,06,30,14,20,27.20
2008,06,30,14,21,27.30
2008,06,30,14,22,27.30
2008,06,30,14,23,27.30
2008,06,30,14,24,27.30
2008,06,30,14,25,27.30
2008,06,30,14,26,27.20
2008,06,30,14,27,27.20
2008,06,30,14,28,27.20
2008,06,30,14,29,27.10
2008,06,30,14,30,26.90
2008,06,30,14,31,26.90
2008,06,30,14,32,26.90
2008,06,30,14,33,27.00
2008,06,30,14,34,27.10
2008,06,30,14,35,27.20
2008,06,30,14,36,27.30
2008,06,30,14,37,27.30
2008,06,30,14,38,27.30
2008,06,30,14,39,27.30
2008,06,30,14,40,27.40
2008,06,30,14,41,27.50
2008,06,30,14,42,27.60
2008,06,30,14,43,27.60
2008,06,30,14,44,27.60
2008,06,30,14,45,27.60
2008,06,30,14,46,27.60
2008,06,30,14,47,27.40
2008,06,30,14,48,27.30
2008,06,30,14,49,27.30
2008,06,30,14,50,27.30
2008,06,30,14,51,27.10
2008,06,30,14,52,27.10
2008,06,30,14,53,27.10
2008,06,30,14,54,27.30
2008,06,30,14,55,27.20
2008,06,30,14,56,27.10
2008,06,30,14,57,26.90
2008,06,30,14,58,26.80
2008,06,30,14,59,26.70
2008,06,30,15,00,26.60
2008,06,30,15,01,26.70
2008,06,30,15,02,26.80
2008,06,30,15,03,26.80
2008,06,30,15,04,26.90
2008,06,30,15,05,26.90
2008,06,30,15,06,27.00
2008,06,30,15,07,27.10
2008,06,30,15,08,27.00
2008,06,30,15,09,26.90
2008,06,30,15,10,26.90
2008,06,30,15,11,26.80
2008,06,30,15,12,26.80
2008,06,30,15,13,26.80
2008,06,30,15,14,26.70
2008,06,30,15,15,26.80
2008,06,30,15,16,26.80
2008,06,30,15,17,26.80
2008,06,30,15,18,26.80
2008,06,30,15,19,26.80
2008,06,30,15,20,26.80
2008,06,30,15,21,26.80
2008,06,30,15,22,26.80
2008,06,30,15,23,26.80
2008,06,30,15,24,26.80
2008,06,30,15,25,26.80
2008,06,30,15,26,26.80
2008,06,30,15,27,27.00
2008,06,30,15,28,27.10
2008,06,30,15,29,26.90
2008,06,30,15,30,26.90
2008,06,30,15,31,26.90
2008,06,30,15,32,26.90
2008,06,30,15,33,27.10
2008,06,30,15,34,27.10
2008,06,30,15,35,27.20
2008,06,30,15,36,27.30
2008,06,30,15,37,27.30
2008,06,30,15,38,27.30
2008,06,30,15,39,27.20
2008,06,30,15,40,27.10
2008,06,30,15,41,27.00
2008,06,30,15,42,26.90
2008,06,30,15,43,26.80
2008,06,30,15,44,26.80
2008,06,30,15,45,26.70
2008,06,30,15,46,26.40
2008,06,30,15,47,26.20
2008,06,30,15,48,26.10
2008,06,30,15,49,25.90
2008,06,30,15,50,25.90
2008,06,30,15,51,25.90
2008,06,30,15,52,25.80
2008,06,30,15,53,25.80
2008,06,30,15,54,25.80
2008,06,30,15,55,25.90
2008,06,30,15,56,25.90
2008,06,30,15,57,25.90
2008,06,30,15,58,25.90
2008,06,30,15,59,25.80
2008,06,30,16,00,25.80
2008,06,30,16,01,25.90
2008,06,30,16,02,25.90
2008,06,30,16,03,25.90
2008,06,30,16,04,26.00
2008,06,30,16,05,26.10
2008,06,30,16,06,26.20
2008,06,30,16,07,26.30
2008,06,30,16,08,26.30
2008,06,30,16,09,26.30
2008,06,30,16,10,26.40
2008,06,30,16,11,26.50
2008,06,30,16,12,26.60
2008,06,30,16,13,26.60
2008,06,30,16,14,26.60
2008,06,30,16,15,26.50
2008,06,30,16,16,26.40
2008,06,30,16,17,26.40
2008,06,30,16,18,26.40
2008,06,30,16,19,26.40
2008,06,30,16,20,26.60
2008,06,30,16,21,26.60
2008,06,30,16,22,26.50
2008,06,30,16,23,26.40
2008,06,30,16,24,26.40
2008,06,30,16,25,26.60
2008,06,30,16,26,26.60
2008,06,30,16,27,26.70
2008,06,30,16,28,26.60
2008,06,30,16,29,26.60
2008,06,30,16,30,26.60
2008,06,30,16,31,26.40
2008,06,30,16,32,26.30
2008,06,30,16,33,26.30
2008,06,30,16,34,26.30
2008,06,30,16,35,26.30
2008,06,30,16,36,26.50
2008,06,30,16,37,26.60
2008,06,30,16,38,26.60
2008,06,30,16,39,26.80
2008,06,30,16,40,26.90
2008,06,30,16,41,27.00
2008,06,30,16,42,27.10
2008,06,30,16,43,27.20
2008,06,30,16,44,27.20
2008,06,30,16,45,27.20
2008,06,30,16,46,27.20
2008,06,30,16,47,27.40
2008,06,30,16,48,27.60
2008,06,30,16,49,27.70
2008,06,30,16,50,27.70
2008,06,30,16,51,27.80
2008,06,30,16,52,27.70
2008,06,30,16,53,27.60
2008,06,30,16,54,27.60
2008,06,30,16,55,27.60
2008,06,30,16,56,27.60
2008,06,30,16,57,27.60
2008,06,30,16,58,27.60
2008,06,30,16,59,27.70
2008,06,30,17,00,27.60
2008,06,30,17,01,27.50
2008,06,30,17,02,27.40
2008,06,30,17,03,27.50
2008,06,30,17,04,27.60
2008,06,30,17,05,27.60
2008,06,30,17,06,27.50
2008,06,30,17,07,27.40
2008,06,30,17,08,27.20
2008,06,30,17,09,27.00
2008,06,30,17,10,26.80
2008,06,30,17,11,26.70
2008,06,30,17,12,26.70
2008,06,30,17,13,26.70
2008,06,30,17,14,26.70
2008,06,30,17,15,26.80
2008,06,30,17,16,26.80
2008,06,30,17,17,26.80
2008,06,30,17,18,26.80
2008,06,30,17,19,26.80